This is the latest recevied weather packets stored in our database for station/object WX4BK-13. If no packets are shown the sender has not sent any weather packets the latest 1 day(s).
| Time | Temp. | Humidity | Pressure | Rain* | Wind** | Luminosity | Snow |
|---|---|---|---|---|---|---|---|
| 1778003667 | 23.89° C | 5% | - | 0 mm | 1.79 m/s, 180° | - | - |
| 1778003307 | 23.89° C | 5% | - | 0 mm | 1.34 m/s, 224° | - | - |
| 1778003127 | 23.89° C | 4% | - | 0 mm | 1.79 m/s, 241° | - | - |
| 1778002947 | 23.89° C | 5% | - | 0 mm | 0.89 m/s, 197° | - | - |
| 1778002767 | 23.89° C | 5% | - | 0 mm | 0 m/s | - | - |
| 1778002587 | 23.89° C | 4% | - | 0 mm | 2.24 m/s, 158° | - | - |
| 1778002407 | 23.89° C | 4% | - | 0 mm | 2.68 m/s, 204° | - | - |
| 1778002227 | 23.89° C | 4% | - | 0 mm | 2.68 m/s, 180° | - | - |
| 1778002047 | 23.33° C | 4% | - | 0 mm | 3.13 m/s, 193° | - | - |
| 1778001867 | 23.89° C | 5% | - | 0 mm | 3.13 m/s, 203° | - | - |
| 1778001687 | 23.89° C | 5% | - | 0 mm | 3.13 m/s, 182° | - | - |
| 1778001326 | 23.89° C | 5% | - | 0 mm | 2.24 m/s, 184° | - | - |
| 1778001146 | 24.44° C | 4% | - | 0 mm | 2.24 m/s, 236° | - | - |
| 1778000966 | 24.44° C | 5% | - | 0 mm | 2.24 m/s, 190° | - | - |
| 1778000786 | 23.89° C | 5% | - | 0 mm | 0.45 m/s, 0° | - | - |
| 1778000607 | 23.89° C | 5% | - | 0 mm | 1.34 m/s, 147° | - | - |
| 1778000246 | 23.89° C | 5% | - | 0 mm | 1.79 m/s, 232° | - | - |
| 1778000066 | 23.89° C | 5% | - | 0 mm | 0.89 m/s, 259° | - | - |
| 1777999706 | 23.89° C | 5% | - | 0 mm | 2.68 m/s, 219° | - | - |
| 1777999526 | 23.89° C | 5% | - | 0 mm | 1.34 m/s, 263° | - | - |
| 1777999346 | 23.33° C | 5% | - | 0 mm | 4.02 m/s, 210° | - | - |
| 1777999166 | 23.33° C | 5% | - | 0 mm | 1.79 m/s, 244° | - | - |
| 1777998986 | 23.89° C | 4% | - | 0 mm | 2.68 m/s, 147° | - | - |
| 1777998806 | 23.89° C | 4% | - | 0 mm | 3.13 m/s, 171° | - | - |
| 1777998626 | 23.89° C | 5% | - | 0 mm | 1.34 m/s, 220° | - | - |
* Rain latest hour (hover to see other rain measurements)
** Current wind speed in m/s (hover to see current wind gust speed)